Regional Weather Roundup
Issued by NWS

Home | Current Version | Previous Version | Graphics & Text | Print | Product List | Glossary On
Versions: 1 2 3 4 5 6 7 8 9 10 11 12 13 14 15 16 17 18 19 20 21 22 23 24 25 26 27
000
ASUS45 KCYS 191710
RWRWY

WYOMING REGIONAL WEATHER ROUNDUP
NATIONAL WEATHER SERVICE CHEYENNE WY
1100 AM MDT SAT AUG 19 2017

NOTE:  "FAIR" INDICATES FEW OR NO CLOUDS BELOW 12,000 FEET
WITH NO SIGNIFICANT WEATHER AND/OR OBSTRUCTIONS TO VISIBILITY.

WYZ001-191800-
YELLOWSTONE NATIONAL PARK

CITY           SKY/WX    TMP DP  RH WIND       PRES   REMARKS
LK YELLOWSTONE   N/A     59  39  47 SE6       30.29F
W YELLOWSTONE  NOT AVBL

$$
WYZ002>013-054>058-071-098>099-191800-
NORTHERN WYOMING

CITY           SKY/WX    TMP DP  RH WIND       PRES   REMARKS
JACKSON        FAIR      64  35  34 SW8       30.22F
CODY           FAIR      78  43  28 N8        30.06F
GREYBULL       FAIR      78  36  21 VRB3      29.98F
WORLAND        FAIR      79  39  23 CALM      29.99F
SHERIDAN       CLOUDY    84  31  14 NW17      29.99S HAZE
BUFFALO        CLOUDY    82  27  13 N17G23    30.05S HAZE
GILLETTE       FAIR      84  30  14 N16G24    29.99R
HULETT         FAIR      81  37  21 NW8       29.99S
NEWCASTLE      FAIR      82  36  18 NW8G17    29.98S

$$
WYZ014>020-022>026-101>103-191800-
CENTRAL WYOMING

CITY           SKY/WX    TMP DP  RH WIND       PRES   REMARKS
BIG PINEY      FAIR      69  26  20 CALM      30.26F
PINEDALE       FAIR      70  28  21 CALM      30.27S
DUBOIS         FAIR      73  25  16 W10G23    30.20F
LANDER           N/A    N/A N/A N/A MISG      30.11S
RIVERTON       FAIR      78  37  22 CALM      30.10F
CASPER         FAIR      81  32  17 SW17      30.08S
DOUGLAS        FAIR      85  38  18 W10       30.04S

$$
WYZ021-027>030-104>119-191800-
SOUTHERN WYOMING

CITY           SKY/WX    TMP DP  RH WIND       PRES   REMARKS
EVANSTON       FAIR      76  27  16 SW10      30.28S
KEMMERER         N/A     72  23  16 W10G16    30.29F
FORT BRIDGER   FAIR      79  22  12 W7G18     30.30S
ROCK SPRINGS   FAIR      74  29  19 NW7       30.26S
RAWLINS        FAIR      75  24  15 W18       30.23F
SARATOGA       FAIR      75  27  16 W12G20    30.27S
LARAMIE        FAIR      75  30  19 N7        30.23F
CHEYENNE       FAIR      83  33  16 W10       30.15F
TORRINGTON     FAIR      87  36  16 NW13      29.98S
PINE BLUFFS    FAIR      86  32  14 W14       30.07F

$$




USA.gov is the U.S. government's official web portal to all federal, state and local government web resources and services.